This is the latest recevied weather packets stored in our database for station/object DK8RG-15. If no packets are shown the sender has not sent any weather packets the latest 10 day(s).
| Time | Temp. | Humidity | Pressure | Rain* | Wind** | Luminosity | Snow |
|---|---|---|---|---|---|---|---|
| 1777872019 | 12.78° C | 67% | 1011.1 hPa | 0 mm | - | - | - |
| 1777871419 | 12.78° C | 67% | 1011.1 hPa | 0 mm | - | - | - |
| 1777870820 | 12.22° C | 69% | 1011.1 hPa | 0 mm | - | - | - |
| 1777870219 | 12.22° C | 72% | 1011.2 hPa | 0 mm | - | - | - |
| 1777869619 | 11.67° C | 72% | 1011.2 hPa | 0 mm | - | - | - |
| 1777869019 | 11.11° C | 73% | 1011.1 hPa | 0 mm | - | - | - |
| 1777868419 | 11.11° C | 73% | 1011.1 hPa | 0 mm | - | - | - |
| 1777867819 | 11.11° C | 72% | 1011.1 hPa | 0 mm | - | - | - |
| 1777867219 | 11.11° C | 72% | 1011.2 hPa | 0 mm | - | - | - |
| 1777866619 | 11.67° C | 72% | 1011.2 hPa | 0 mm | - | - | - |
| 1777866019 | 12.22° C | 72% | 1011.2 hPa | 0 mm | - | - | - |
| 1777865419 | 12.22° C | 72% | 1011.2 hPa | 0 mm | - | - | - |
| 1777864820 | 12.22° C | 72% | 1011.2 hPa | 0 mm | - | - | - |
| 1777864219 | 12.22° C | 70% | 1011.2 hPa | 0 mm | - | - | - |
| 1777863619 | 12.22° C | 69% | 1011.2 hPa | 0 mm | - | - | - |
| 1777863020 | 12.22° C | 70% | 1011.2 hPa | 0 mm | - | - | - |
| 1777862420 | 12.22° C | 69% | 1011.2 hPa | 0 mm | - | - | - |
| 1777861819 | 12.22° C | 69% | 1012.2 hPa | 0 mm | - | - | - |
| 1777861219 | 12.22° C | 68% | 1012.2 hPa | 0 mm | - | - | - |
| 1777860619 | 12.22° C | 68% | 1011.2 hPa | 0 mm | - | - | - |
| 1777860019 | 12.22° C | 69% | 1011.2 hPa | 0 mm | - | - | - |
| 1777859419 | 12.22° C | 70% | 1011.2 hPa | 0 mm | - | - | - |
| 1777858820 | 12.22° C | 71% | 1011.2 hPa | 0 mm | - | - | - |
| 1777858219 | 12.22° C | 71% | 1011.2 hPa | 0 mm | - | - | - |
| 1777857620 | 12.22° C | 70% | 1011.2 hPa | 0 mm | - | - | - |
* Rain latest hour (hover to see other rain measurements)
** Current wind speed in m/s (hover to see current wind gust speed)